Torna al catalogo

COSMOS 2609

AttivoMilitarePO
NORAD 68754·PAYLOAD·🇷🇺 Russia

Lanciato Apr 16, 2026 da Plesetsk Cosmodrome

Loading…

Prossimi Passaggi (prossime 24 ore)

TLE

AggiornatoSource: Space-Track

Epoca: Sep 14, 2026, 21:55 UTC

1 68754U 26083B   26257.91387435  .00002032  00000-0  14478-3 0  9995
2 68754  98.1348  51.6938 0012621  86.9067 273.3602 15.05794282 22735

Traccia COSMOS 2609 in tempo reale con AllMySat

Download on the App Store